TimeEDT,TemperatureF,Dew PointF,Humidity,Sea Level PressureIn,VisibilityMPH,Wind Direction,Wind SpeedMPH,Gust SpeedMPH,PrecipitationIn,Events,Conditions,WindDirDegrees,DateUTC
12:53 AM,66.9,64.9,93,30.25,7.0,Calm,Calm,-,N/A,,Clear,0,2013-07-14 04:53:00
1:53 AM,66.9,64.9,93,30.25,7.0,Calm,Calm,-,N/A,,Mostly Cloudy,0,2013-07-14 05:53:00
2:53 AM,69.1,66.9,93,30.26,10.0,Calm,Calm,-,N/A,,Overcast,0,2013-07-14 06:53:00
3:53 AM,70.0,68.0,93,30.27,10.0,SSW,3.5,-,N/A,,Overcast,210,2013-07-14 07:53:00
4:53 AM,71.1,68.0,90,30.27,10.0,Calm,Calm,-,N/A,,Overcast,0,2013-07-14 08:53:00
5:53 AM,71.1,68.0,90,30.29,10.0,SW,3.5,-,N/A,,Overcast,220,2013-07-14 09:53:00
6:53 AM,72.0,69.1,91,30.30,10.0,Calm,Calm,-,N/A,,Overcast,0,2013-07-14 10:53:00
7:53 AM,75.9,68.0,76,30.30,10.0,WSW,3.5,-,N/A,,Overcast,240,2013-07-14 11:53:00
8:53 AM,77.0,69.1,76,30.31,10.0,Calm,Calm,-,N/A,,Overcast,0,2013-07-14 12:53:00
9:53 AM,79.0,69.1,72,30.30,10.0,SSW,4.6,-,N/A,,Overcast,200,2013-07-14 13:53:00
10:53 AM,80.1,69.1,69,30.30,10.0,WSW,5.8,-,N/A,,Partly Cloudy,250,2013-07-14 14:53:00
11:53 AM,82.0,70.0,67,30.29,10.0,Calm,Calm,-,N/A,,Mostly Cloudy,0,2013-07-14 15:53:00
12:53 PM,84.0,69.1,61,30.27,10.0,Variable,4.6,-,N/A,,Partly Cloudy,0,2013-07-14 16:53:00
1:53 PM,84.9,70.0,61,30.26,10.0,NNE,6.9,-,N/A,,Mostly Cloudy,20,2013-07-14 17:53:00
2:53 PM,86.0,70.0,59,30.25,10.0,Variable,4.6,-,N/A,,Mostly Cloudy,0,2013-07-14 18:53:00
3:53 PM,87.1,69.1,55,30.24,10.0,West,5.8,-,N/A,,Scattered Clouds,270,2013-07-14 19:53:00
4:53 PM,87.1,68.0,53,30.23,10.0,WNW,4.6,-,N/A,,Clear,290,2013-07-14 20:53:00
5:53 PM,87.1,66.9,51,30.22,10.0,West,8.1,-,N/A,,Clear,280,2013-07-14 21:53:00
6:53 PM,86.0,68.0,55,30.22,10.0,West,5.8,-,N/A,,Clear,270,2013-07-14 22:53:00
7:53 PM,82.9,69.1,63,30.21,10.0,West,3.5,-,N/A,,Clear,270,2013-07-14 23:53:00
8:53 PM,77.0,70.0,79,30.21,10.0,SSW,3.5,-,N/A,,Clear,200,2013-07-15 00:53:00
9:53 PM,75.9,70.0,82,30.21,10.0,Calm,Calm,-,N/A,,Clear,0,2013-07-15 01:53:00
10:53 PM,73.9,69.1,85,30.22,10.0,SW,3.5,-,N/A,,Clear,230,2013-07-15 02:53:00
11:53 PM,72.0,68.0,87,30.22,10.0,SW,3.5,-,N/A,,Clear,220,2013-07-15 03:53:00